Date String (YYYY-MM-DD hh:mm:ss) UTC,Instrument flags,absolute air pressure of the measurement (hPa),sample flow rate (lpm),inlet stack bypass flow (lpm),air temperature of the measurement (°C),ambient temperature measured by the external sensor (°C),aerosol sample conditioner tube jacket temperature (°C),OPC LED temperature (°C),internal box temperature (°C),relative humidity of the measurement (%),span deviation,mass concentration of particles derived from Lorenz-Mie calculation of OPC scattering (μg/m³),mass concentration of particles derived from Lorenz-Mie calculation of OPC scattering (μg/m³),mass concentration of particles derived from Lorenz-Mie calculation of OPC scattering (μg/m³)
DateTimeUTC,F1_M11,P_M11,Q1_M11,Q2_M11,T1_M11,T2_M11,T3_M11,T4_M11,T5_M11,U1_M11,ZSPAN_M11,X0_M11,X2_M11,X1_M11
2023-08-20 03:00:00,SystemResetWarning,0835.3,5.00,000.00,028.5,025.9,000.0,036.8,029.7,33.6,0000.0,0008.09,0003.43,0002.56
2023-08-20 03:01:00,SystemResetWarning,0835.3,5.01,000.00,028.5,026.2,000.0,036.8,029.8,33.7,0000.0,0007.97,0003.42,0002.57
2023-08-20 03:02:00,SystemResetWarning,0835.3,5.00,000.00,028.5,026.5,000.0,036.8,029.8,33.6,0000.0,0008.40,0003.44,0002.59
2023-08-20 03:03:00,SystemResetWarning,0835.4,4.99,000.00,028.6,026.4,000.0,036.8,029.9,33.5,0000.0,0009.26,0003.48,0002.61
2023-08-20 03:04:00,SystemResetWarning,0835.4,4.99,000.00,028.5,025.0,000.0,036.7,029.6,33.6,0000.0,0009.10,0003.50,0002.62
2023-08-20 03:05:00,SystemResetWarning,0835.3,5.01,000.00,028.4,023.8,000.0,036.6,029.3,33.8,0000.0,0008.55,0003.49,0002.63
2023-08-20 03:06:00,SystemResetWarning,0835.2,5.01,000.00,028.3,023.6,000.0,036.5,029.2,34.2,0000.0,0008.70,0003.51,0002.62
2023-08-20 03:07:00,SystemResetWarning,0835.2,5.01,000.00,028.2,023.9,000.0,036.5,029.0,34.6,0000.0,0008.70,0003.47,0002.59
2023-08-20 03:08:00,SystemResetWarning,0835.2,5.00,000.00,028.1,024.4,000.0,036.5,029.2,34.6,0000.0,0008.71,0003.45,0002.56
2023-08-20 03:09:00,SystemResetWarning,0835.2,5.00,000.00,028.1,024.8,000.0,036.5,029.3,34.6,0000.0,0008.60,0003.42,0002.55
2023-08-20 03:10:00,SystemResetWarning,0835.3,5.00,000.00,028.2,025.3,000.0,036.5,029.4,34.7,0000.0,0008.48,0003.40,0002.55
2023-08-20 03:11:00,SystemResetWarning,0835.3,5.00,000.00,028.2,025.7,000.0,036.6,029.5,34.7,0000.0,0008.49,0003.40,0002.55
2023-08-20 03:12:00,SystemResetWarning,0835.4,5.00,000.00,028.2,026.0,000.0,036.6,029.6,34.8,0000.0,0008.61,0003.42,0002.55
2023-08-20 03:13:00,SystemResetWarning,0835.4,5.00,000.00,028.2,026.3,000.0,036.6,029.7,34.8,0000.0,0008.43,0003.47,0002.56
2023-08-20 03:14:00,SystemResetWarning,0835.3,5.01,000.00,028.3,026.5,000.0,036.6,029.8,34.9,0000.0,0007.97,0003.48,0002.58
2023-08-20 03:15:00,SystemResetWarning,0835.2,4.99,000.00,028.3,026.6,000.0,036.6,029.8,34.9,0000.0,0007.69,0003.49,0002.59
2023-08-20 03:16:00,SystemResetWarning,0835.2,4.97,000.00,028.3,025.5,000.0,036.5,029.7,35.0,0000.0,0008.25,0003.49,0002.57
2023-08-20 03:17:00,SystemResetWarning,0835.2,5.04,000.00,028.3,024.0,000.0,036.4,029.4,35.1,0000.0,0008.64,0003.46,0002.55
2023-08-20 03:18:00,SystemResetWarning,0835.2,4.97,000.00,028.5,023.6,000.0,036.4,029.3,34.8,0000.0,0009.03,0003.48,0002.56
2023-08-20 03:19:00,SystemResetWarning,0835.2,5.01,000.00,028.5,023.8,000.0,036.4,029.1,34.8,0000.0,0009.36,0003.54,0002.57
2023-08-20 03:20:00,SystemResetWarning,0835.2,4.99,000.00,028.5,024.3,000.0,036.4,029.2,35.0,0000.0,0009.58,0003.60,0002.58
2023-08-20 03:21:00,SystemResetWarning,0835.2,5.03,000.00,028.7,024.7,000.0,036.5,029.4,34.8,0000.0,0009.66,0003.62,0002.58
2023-08-20 03:22:00,SystemResetWarning,0835.2,4.98,000.00,028.8,025.2,000.0,036.5,029.6,34.6,0000.0,0009.66,0003.64,0002.59
2023-08-20 03:23:00,SystemResetWarning,0835.3,5.01,000.00,028.9,025.6,000.0,036.6,029.7,34.4,0000.0,0009.82,0003.65,0002.58
2023-08-20 03:24:00,SystemResetWarning,0835.3,5.01,000.00,029.0,025.9,000.0,036.7,029.8,34.4,0000.0,0009.69,0003.59,0002.56
2023-08-20 03:25:00,SystemResetWarning,0835.3,4.99,000.00,029.1,026.2,000.0,036.8,029.9,34.4,0000.0,0009.25,0003.56,0002.52
2023-08-20 03:26:00,SystemResetWarning,0835.4,4.99,000.00,029.1,026.4,000.0,036.8,029.9,34.4,0000.0,0009.04,0003.55,0002.50
2023-08-20 03:27:00,SystemResetWarning,0835.4,5.00,000.00,029.2,026.6,000.0,036.9,030.0,34.5,0000.0,0008.53,0003.55,0002.50
2023-08-20 03:28:00,SystemResetWarning,0835.5,5.00,000.00,029.2,026.6,000.0,037.0,030.0,34.5,0000.0,0008.04,0003.58,0002.50
2023-08-20 03:29:00,SystemResetWarning,0835.5,5.00,000.00,029.2,025.2,000.0,036.9,029.8,34.7,0000.0,0007.69,0003.58,0002.49
2023-08-20 03:30:00,SystemResetWarning,0835.4,5.00,000.00,029.1,023.9,000.0,036.8,029.5,34.9,0000.0,0007.51,0003.57,0002.47
2023-08-20 03:31:00,SystemResetWarning,0835.3,5.03,000.00,029.1,023.7,000.0,036.8,029.4,35.2,0000.0,0007.67,0003.59,0002.46
2023-08-20 03:32:00,SystemResetWarning,0835.5,5.00,000.00,029.2,024.0,000.0,036.9,029.4,35.0,0000.0,0007.77,0003.61,0002.45
2023-08-20 03:33:00,SystemResetWarning,0835.5,4.98,000.00,029.4,024.4,000.0,036.9,029.6,34.6,0000.0,0008.21,0003.57,0002.44
2023-08-20 03:34:00,SystemResetWarning,0835.5,4.99,000.00,029.5,024.9,000.0,036.9,029.7,34.3,0000.0,0008.46,0003.54,0002.45
2023-08-20 03:35:00,SystemResetWarning,0835.5,5.00,000.00,029.6,025.3,000.0,037.0,029.8,34.1,0000.0,0008.48,0003.55,0002.44
2023-08-20 03:36:00,SystemResetWarning,0835.5,5.01,000.00,029.7,025.7,000.0,037.1,029.9,34.0,0000.0,0008.50,0003.57,0002.45
2023-08-20 03:37:00,SystemResetWarning,0835.6,5.02,000.00,029.7,026.0,000.0,037.2,030.0,33.8,0000.0,0008.62,0003.60,0002.47
2023-08-20 03:38:00,SystemResetWarning,0835.6,4.99,000.00,029.7,026.3,000.0,037.3,030.0,33.7,0000.0,0008.74,0003.63,0002.49
2023-08-20 03:39:00,SystemResetWarning,0835.7,5.01,000.00,029.8,026.6,000.0,037.4,030.1,33.7,0000.0,0008.80,0003.63,0002.49
2023-08-20 03:40:00,SystemResetWarning,0835.8,5.00,000.00,029.8,026.8,000.0,037.4,030.2,33.7,0000.0,0008.85,0003.65,0002.49
2023-08-20 03:41:00,SystemResetWarning,0835.8,4.98,000.00,029.8,026.5,000.0,037.5,030.2,33.7,0000.0,0009.40,0003.60,0002.50
2023-08-20 03:42:00,SystemResetWarning,0835.8,5.00,000.00,029.8,024.9,000.0,037.4,029.9,33.7,0000.0,0009.49,0003.52,0002.49
2023-08-20 03:43:00,SystemResetWarning,0835.8,5.00,000.00,029.7,023.8,000.0,037.3,029.7,33.9,0000.0,0009.44,0003.52,0002.49
2023-08-20 03:44:00,SystemResetWarning,0835.8,5.01,000.00,029.6,023.8,000.0,037.3,029.5,34.2,0000.0,0009.01,0003.54,0002.49
2023-08-20 03:45:00,SystemResetWarning,0835.9,5.01,000.00,029.4,024.1,000.0,037.3,029.4,34.7,0000.0,0008.70,0003.55,0002.48
2023-08-20 03:46:00,SystemResetWarning,0835.9,5.00,000.00,029.3,024.6,000.0,037.4,029.5,34.9,0000.0,0008.43,0003.51,0002.46
2023-08-20 03:47:00,SystemResetWarning,0835.9,4.97,000.00,029.3,025.0,000.0,037.4,029.7,35.1,0000.0,0008.42,0003.50,0002.46
2023-08-20 03:48:00,SystemResetWarning,0835.9,5.02,000.00,029.4,025.4,000.0,037.4,029.8,34.8,0000.0,0008.33,0003.45,0002.44
2023-08-20 03:49:00,SystemResetWarning,0836.0,4.98,000.00,029.6,025.8,000.0,037.4,030.0,34.6,0000.0,0008.34,0003.44,0002.43
2023-08-20 03:50:00,SystemResetWarning,0836.1,5.02,000.00,029.6,026.1,000.0,037.4,030.1,34.4,0000.0,0008.23,0003.41,0002.44
2023-08-20 03:51:00,SystemResetWarning,0836.1,4.98,000.00,029.7,026.4,000.0,037.5,030.1,34.4,0000.0,0008.20,0003.40,0002.46
2023-08-20 03:52:00,SystemResetWarning,0836.2,4.99,000.00,029.7,026.6,000.0,037.5,030.2,34.4,0000.0,0007.91,0003.43,0002.46
2023-08-20 03:53:00,SystemResetWarning,0836.3,5.01,000.00,029.8,026.8,000.0,037.6,030.3,34.3,0000.0,0007.46,0003.50,0002.48
2023-08-20 03:54:00,SystemResetWarning,0836.4,4.99,000.00,029.8,026.2,000.0,037.6,030.1,34.3,0000.0,0007.53,0003.50,0002.47
2023-08-20 03:55:00,SystemResetWarning,0836.5,5.00,000.00,029.7,024.5,000.0,037.4,029.8,34.4,0000.0,0007.69,0003.51,0002.47
2023-08-20 03:56:00,SystemResetWarning,0836.5,5.00,000.00,029.6,023.7,000.0,037.4,029.7,34.6,0000.0,0008.40,0003.51,0002.49
2023-08-20 03:57:00,SystemResetWarning,0836.6,4.99,000.00,029.5,023.8,000.0,037.3,029.4,34.9,0000.0,0008.80,0003.55,0002.53
2023-08-20 03:58:00,SystemResetWarning,0836.6,5.01,000.00,029.4,024.2,000.0,037.4,029.5,35.3,0000.0,0008.84,0003.57,0002.55
2023-08-20 03:59:00,SystemResetWarning,0836.7,5.02,000.00,029.6,024.6,000.0,037.4,029.7,35.1,0000.0,0009.09,0003.62,0002.58
